Main page
METAR-TAF:

METAR-TAF

Airports :

Tan Tan Airport

Tan-Tan, Morocco

latitude: 28-26-54N, longitude: 11-09-41W, elevation: 199 m

Current weather observation

The report was made 11 hours and 25 minutes ago, at 18:00 UTC
Wind 18 kt from the North
Temperature 22°C
Humidity 94%
Pressure 1011 hPa
Visibility: 8000 m
Broken clouds at a height of 1600 ft

METAR: GMAT 121800Z 36018KT 8000 BKN016 22/21 Q1011 NOSIG

Time: 06:25 (05:25 UTC)


TAF: missing

Weather observations and forecasts of more than 4000 airports (METAR and TAF reports).

The available stations are represented by yellow and red dots on the map.

Hover mouse over dot to see the name of the station.

Then click to see weather observations and forecasts.

To change the map : click on the green buttons with a black cross to zoom in, on the green button with a dash to zoom out, or on the green arrows for adjacent maps.


METAR-TAF: